TY-1
1 41844U 16066D 17019.80898145 -.00000070 00000-0 00000 0 0 9998
2 41844 97.4054 29.2526 0017902 41.4697 43.6408 15.21608553 10774
CAS-2T
1 41845U 16066E 17019.81162514 -.00000075 00000-0 00000 0 0 9999
2 41845 98.7805 31.8625 0366641 328.7363 29.2485 14.37686372 10170
Pegasus-1
1 41846U 16066F 17019.85407012 -.00000075 00000-0 00000 0 0 9999
2 41846 98.7846 31.8345 0369590 329.3151 28.6906 14.36846077 10173
STARS-C
1 41895U 98067KR 17019.48298535 .00010544 00000-0 16028-3 0 9993
2 41895 51.6432 59.4364 0006466 109.9431 250.2264 15.55140288 4802
BY70-1
1 41909U 16083C 17019.75764782 .00252046 24328-5 42731-3 0 9998
2 41909 97.5799 99.2654 0178986 280.1795 77.9680 15.79557408 3547
ITF-2
1 41930U 98067KS 17019.56008638 .00542499 00000-0 68810-2 0 9999
2 41930 51.6439 59.2145 0008389 89.4626 271.0330 15.57017498 380
WASEDA-SAT3
1 41931U 98067KT 17019.24028552 .00011121 00000-0 16971-3 0 9997
2 41931 51.6424 60.8140 0009641 74.0252 286.1759 15.54943196 332
FREEDOM
1 41932U 98067KU 17019.49759689 .00009535 00000-0 14003-3 0 9997
2 41932 51.6433 59.5366 0007920 71.1298 289.1073 15.54810443 389
EGG
1 41933U 98067KV 17019.24054383 .00010261 00000-0 15818-3 0 9993
2 41933 51.6424 60.8191 0007555 72.3750 287.8049 15.54779450 336
TuPOD-Tancredo1
1 41934U 98067KW 17019.24059181 .00006138 00000-0 97652-4 0 9990
2 41934 51.6418 60.8209 0009418 81.9571 278.2484 15.54745601 425
AOBA-V3LOX3
1 41935U 98067KX 17019.24067660 .00010169 00000-0 15720-3 0 9996
2 41935 51.6430 60.8202 0006781 80.9505 279.2242 15.54718526 439
/EX
1
0
SB KEPS @ AMSAT $ORB17012.N
2Line Orbital Elements 17012.AMSAT
HR AMSAT ORBITAL ELEMENTS FOR AMATEUR SATELLITES IN NASA FORMAT
FROM WA5QGD FORT WORTH,TX January 12, 2017
BID: ORB17012.N
DECODE 2-LINE ELSETS WITH THE FOLLOWING KEY:
1 AAAAAU 00 0 0 BBBBB.BBBBBBBB .CCCCCCCC 00000-0 00000-0 0 DDDZ
2 AAAAA EEE.EEEE FFF.FFFF GGGGGGG HHH.HHHH III.IIII JJ.JJJJJJJJKKKKKZ
KEY: A-CATALOGNUM B-EPOCHTIME C-DECAY D-ELSETNUM E-INCLINATION F-RAAN
G-ECCENTRICITY H-ARGPERIGEE I-MNANOM J-MNMOTION K-ORBITNUM Z-CHECKSUM
TO ALL RADIO AMATEURS BT
AO-07
1 07530U 74089B 17012.85034955 -.00000046 00000-0 -12599-4 0 9995
2 07530 101.6080 344.7401 0011747 264.1842 109.8772 12.53625072929392
UO-11
1 14781U 84021B 17012.76581266 .00000085 00000-0 16859-4 0 9994
2 14781 97.7209 64.0142 0008331 359.1614 0.9584 14.82847445767315
LO-19
1 20442U 90005G 17012.42142408 -.00000000 00000-0 15898-4 0 9998
2 20442 98.5634 310.6286 0010692 246.2372 113.7691 14.32845432409310
HUBBLE
1 20580U 90037B 17011.96673389 .00000503 00000-0 20112-4 0 9993
2 20580 028.4707 319.6982 0002513 293.8221 144.8373 15.08643848266585
MET-2/21
1 22782U 93055A 17011.86218948 .00000050 00000-0 31831-4 0 9994
2 22782 82.5501 147.6450 0023226 147.2102 17.5477 13.83796704180078
AO-27
1 22825U 93061C 17011.87921041 -.00000014 00000-0 12008-4 0 9991
2 22825 98.7903 335.7306 0009458 70.2997 289.9204 14.29982572215061
IO-26
1 22826U 93061D 17011.87612267 -.00000006 00000-0 15019-4 0 9995
2 22826 98.7845 335.8279 0009905 61.7643 298.4538 14.30309917215239
FO-29
1 24278U 96046B 17012.21432705 -.00000044 00000-0 -86947-5 0 9992
2 24278 98.5832 276.0519 0350800 21.5461 340.0036 13.53074046 7786
NOAA-15
1 25338U 98030A 17012.56351269 .00000023 00000-0 28499-4 0 9990
2 25338 98.7842 23.1458 0009735 301.7012 58.3218 14.25772979970828
GO-32
1 25397U 98043D 17012.79825945 -.00000024 00000-0 81322-5 0 9998
2 25397 98.5934 318.5533 0002415 89.5563 270.5892 14.23612692961681
ISS
1 25544U 98067A 17012.93744213 .00002634 00000-0 47166-4 0 9997
2 25544 51.6438 92.2505 0007434 78.5234 267.6679 15.54056433 37604
NO-44
1 26931U 01043C 17011.76934926 -.00000037 00000-0 17577-4 0 9997
2 26931 67.0514 134.7699 0006366 281.5219 78.5168 14.30442839797976
SO-50
1 27607U 02058C 17012.77240316 .00000002 00000-0 20934-4 0 9992
2 27607 64.5545 240.4640 0042665 163.4981 196.7521 14.75270270756181
CO-55
1 27844U 03031E 17012.57520683 .00000056 00000-0 44979-4 0 9997
2 27844 98.6913 23.8380 0010757 79.0163 281.2224 14.22008047702203
CO-57
1 27848U 03031J 17011.75882937 .00000044 00000-0 39844-4 0 9995
2 27848 98.7007 23.2239 0010701 89.1852 271.0552 14.21626517701976
RS-22
1 27939U 03042A 17012.83584448 .00000089 00000-0 24460-4 0 9991
2 27939 97.9145 162.8130 0012983 5.4223 144.1684 14.66509505710543
NOAA-18
1 28654U 05018A 17012.55191846 .00000018 00000-0 35270-4 0 9999
2 28654 99.1925 30.8823 0014869 145.4905 214.7234 14.12321562600299
CO-58
1 28895U 05043F 17011.93254109 .00000133 00000-0 34418-4 0 9998
2 28895 097.8454 181.5961 0015573 278.6919 081.2520 14.63326259597409
CO-65
1 32785U 08021C 17012.81988139 .00000233 00000-0 31244-4 0 9990
2 32785 97.5816 44.0711 0012301 328.8210 31.2276 14.87773638471794
AAUSAT2
1 32788U 08021F 17012.08699570 .00000195 00000-0 23664-4 0 9994
2 32788 97.5788 53.8089 0010667 295.4951 64.5165 14.93635797472376
DO-64
1 32789U 08021G 17012.60114951 .00000756 00000-0 58658-4 0 9992
2 32789 97.5802 74.0003 0011526 270.4477 89.5428 15.04275629473474
CO-66
1 32791U 08021J 17012.05448713 .00000320 00000-0 38625-4 0 9999
2 32791 97.5808 47.2061 0012415 316.7852 43.2391 14.90057791471890
RS-30
1 32953U 08025A 17012.38407515 .00000000 00000-0 -69829-4 0 9990
2 32953 82.5046 336.5468 0017789 266.7342 93.1703 12.43074377392067
PRISM
1 33493U 09002B 17012.67284831 .00001215 00000-0 11556-3 0 9993
2 33493 98.1889 248.3545 0014207 233.3755 126.6179 14.95409429432536
NOAA-19
1 33591U 09005A 17012.53540787 .00000097 00000-0 78020-4 0 9992
2 33591 99.0711 337.3356 0013994 354.2061 5.8946 14.12143820408681
TISAT-1
1 36799U 10035E 17012.77725706 .00000319 00000-0 38934-4 0 9999
2 36799 98.0456 132.5658 0013776 115.7556 244.5085 14.90185956352648
JUGNU
1 37839U 11058B 17011.96027507 .00000308 00000-0 22083-4 0 9991
2 37839 019.9622 317.7459 0018833 260.9462 163.5959 14.12568064271475
